Location: Newark
(44.3681°N, 100.3364°W)
Time: 06:21:46
(UTC+00:00)

Vanguard 1 - Pass Details

Date: 21 February 2020
Orbit: 649 x 3833 km, 34.2° (Epoch: 07 April)

Event Time Altitude Azimuth Distance (km) Brightness Sun altitude
Rises 16:52:02 0° 253° (WSW) 7,737 14.5 28.4°
Reaches altitude 10° 16:57:52 10° 250° (WSW) 6,424 14.2 29.0°
Maximum altitude 17:15:51 55° 180° (S) 2,686 13.5 30.6°
Drops below altitude 10° 17:25:54 10° 106° (ESE) 3,758 13.7 31.5°
Sets 17:28:22 0° 102° (ESE) 4,434 13.9 31.7°
